Weather History for Chester, SC

Change the Weather History Date:

Sunday, March 10, 2013

  Actual Average (KUZA) Record (KUZA)
Temperature  
Mean Temperature 52 °F -  
Max Temperature 68 °F 63 °F 80 °F (1974)
Min Temperature 37 °F 40 °F 17 °F (1960)
Degree Days  
Heating Degree Days 12    
Growing Degree Days 2 (Base 50)    
Moisture  
Dew Point 36 °F    
Average Humidity 55    
Maximum Humidity 87    
Minimum Humidity 30    
Precipitation  
Precipitation 0.00 in - - ()
Sea Level Pressure  
Sea Level Pressure 30.24 in    
Wind  
Wind Speed 2 mph (SE)    
Max Wind Speed 12 mph    
Max Gust Speed 17 mph    
Visibility 10 miles    
Events      
Averages and records for this station are not official NWS values.
T = Trace of Precipitation, MM = Missing Value Source: NWS Daily Summary

Daily Weather History Graph

Daily Weather History Graph

Search for Another Location

Airport:

Trip Planner

Search our weather history database for the weather conditions in past years. The results will help you decide how hot, cold, wet, or windy it might be!

Date:

Astronomy

Mar. 10, 2013 Rise Set
Actual Time 7:41 AM EDT 7:28 PM EDT
Civil Twilight 7:16 AM EDT 7:53 PM EDT
Nautical Twilight 6:47 AM EDT 8:22 PM EDT
Astronomical Twilight 6:18 AM EDT 8:52 PM EDT
Moon 6:39 AM EDT (3/10) 6:35 PM EDT (3/10)
Length of Visible Light 12h 37m
Length of Day
11h 46m
Waning Crescent, 2% of the Moon is Illuminated
Mar 10
Waning Crescent
Mar 11
New
Mar 19
First Quarter
Mar 27
Full
Apr 3
Last Quarter

Hourly Weather History & Observations

Time (EDT) Temp. Dew Point Humidity Pressure Visibility Wind Dir Wind Speed Gust Speed Precip Events Conditions
12:15 AM 46.4 °F 35.6 °F 66% 30.27 in 10.0 mi Calm Calm - N/A   Clear
12:35 AM 44.6 °F 37.4 °F 76% 30.27 in 10.0 mi Calm Calm - N/A   Clear
12:55 AM 44.6 °F 35.6 °F 71% 30.27 in 10.0 mi Calm Calm - N/A   Clear
1:15 AM 44.6 °F 33.8 °F 66% 30.26 in 10.0 mi Calm Calm - N/A   Clear
1:35 AM 44.6 °F 33.8 °F 66% 30.26 in 10.0 mi Calm Calm - N/A   Clear
1:55 AM 42.8 °F 33.8 °F 70% 30.26 in 10.0 mi Calm Calm - N/A   Clear
3:15 AM 42.8 °F 33.8 °F 70% 30.25 in 10.0 mi Calm Calm - N/A   Clear
3:55 AM 42.8 °F 33.8 °F 70% 30.25 in 10.0 mi Calm Calm - N/A   Clear
4:15 AM 41.0 °F 35.6 °F 81% 30.24 in 10.0 mi Calm Calm - N/A   Clear
4:35 AM 41.0 °F 35.6 °F 81% 30.24 in 10.0 mi Calm Calm - N/A   Clear
4:55 AM 41.0 °F 33.8 °F 76% 30.25 in 10.0 mi Calm Calm - N/A   Clear
5:15 AM 41.0 °F 33.8 °F 76% 30.25 in 10.0 mi Calm Calm - N/A   Clear
5:35 AM 41.0 °F 33.8 °F 76% 30.25 in 10.0 mi Calm Calm - N/A   Clear
5:55 AM 39.2 °F 33.8 °F 81% 30.25 in 10.0 mi Calm Calm - N/A   Clear
6:15 AM 39.2 °F 33.8 °F 81% 30.25 in 10.0 mi Calm Calm - N/A   Clear
6:35 AM 39.2 °F 33.8 °F 81% 30.25 in 10.0 mi Calm Calm - N/A   Clear
6:55 AM 39.2 °F 33.8 °F 81% 30.26 in 10.0 mi Calm Calm - N/A   Clear
7:15 AM 41.0 °F 35.6 °F 81% 30.26 in 10.0 mi Calm Calm - N/A   Clear
7:35 AM 41.0 °F 35.6 °F 81% 30.27 in 10.0 mi Calm Calm - N/A   Clear
7:55 AM 37.4 °F 33.8 °F 87% 30.27 in 10.0 mi Calm Calm - N/A   Clear
8:55 AM 42.8 °F 35.6 °F 76% 30.29 in 10.0 mi Calm Calm - N/A   Clear
9:15 AM 44.6 °F 35.6 °F 71% 30.29 in 10.0 mi Calm Calm - N/A   Clear
9:35 AM 46.4 °F 39.2 °F 76% 30.30 in 10.0 mi Calm Calm - N/A   Clear
9:55 AM 46.4 °F 37.4 °F 71% 30.30 in 10.0 mi Calm Calm - N/A   Clear
10:15 AM 51.8 °F 39.2 °F 62% 30.30 in 10.0 mi Calm Calm - N/A   Clear
10:35 AM 53.6 °F 39.2 °F 58% 30.30 in 10.0 mi Calm Calm - N/A   Clear
10:55 AM 57.2 °F 37.4 °F 48% 30.30 in 10.0 mi Calm Calm - N/A   Clear
11:15 AM 57.2 °F 37.4 °F 48% 30.30 in 10.0 mi South 3.5 mph - N/A   Clear
11:35 AM 59.0 °F 35.6 °F 42% 30.30 in 10.0 mi Calm Calm - N/A   Clear
11:55 AM 59.0 °F 35.6 °F 42% 30.30 in 10.0 mi South 4.6 mph - N/A   Clear
12:15 PM 59.0 °F 35.6 °F 42% 30.30 in 10.0 mi SSW 4.6 mph - N/A   Clear
12:35 PM 59.0 °F 35.6 °F 42% 30.29 in 10.0 mi Calm Calm - N/A   Clear
12:55 PM 59.0 °F 35.6 °F 42% 30.28 in 10.0 mi SSE 4.6 mph - N/A   Clear
1:15 PM 60.8 °F 35.6 °F 39% 30.27 in 10.0 mi South 3.5 mph - N/A   Clear
1:35 PM 62.6 °F 35.6 °F 37% 30.25 in 10.0 mi SSE 4.6 mph - N/A   Clear
1:55 PM 62.6 °F 37.4 °F 39% 30.24 in 10.0 mi South 4.6 mph - N/A   Clear
2:15 PM 64.4 °F 35.6 °F 34% 30.23 in 10.0 mi SSW 3.5 mph - N/A   Clear
2:35 PM 64.4 °F 35.6 °F 34% 30.22 in 10.0 mi East 3.5 mph - N/A   Clear
2:55 PM 64.4 °F 33.8 °F 32% 30.22 in 10.0 mi SSE 9.2 mph - N/A   Clear
3:15 PM 66.2 °F 33.8 °F 30% 30.21 in 10.0 mi SSE 11.5 mph 17.3 mph N/A   Clear
3:55 PM 68.0 °F 35.6 °F 30% 30.20 in 10.0 mi East 4.6 mph - N/A   Clear
4:15 PM 68.0 °F 35.6 °F 30% 30.20 in 10.0 mi South 9.2 mph - N/A   Clear
4:35 PM 68.0 °F 35.6 °F 30% 30.20 in 10.0 mi SSW 4.6 mph - N/A   Clear
4:55 PM 68.0 °F 35.6 °F 30% 30.19 in 10.0 mi ESE 3.5 mph - N/A   Clear
5:15 PM 68.0 °F 35.6 °F 30% 30.19 in 10.0 mi SE 6.9 mph - N/A   Clear
5:35 PM 66.2 °F 35.6 °F 32% 30.18 in 10.0 mi SSE 6.9 mph - N/A   Clear
5:55 PM 66.2 °F 35.6 °F 32% 30.18 in 10.0 mi East 3.5 mph - N/A   Clear
6:15 PM 66.2 °F 35.6 °F 32% 30.18 in 10.0 mi SE 9.2 mph - N/A   Clear
6:35 PM 64.4 °F 35.6 °F 34% 30.17 in 10.0 mi ESE 5.8 mph - N/A   Clear
6:55 PM 64.4 °F 35.6 °F 34% 30.19 in 10.0 mi SSE 4.6 mph - N/A   Clear
7:15 PM 60.8 °F 35.6 °F 39% 30.19 in 10.0 mi East 3.5 mph - N/A   Clear
7:35 PM 59.0 °F 37.4 °F 45% 30.19 in 10.0 mi Calm Calm - N/A   Clear
7:55 PM 55.4 °F 37.4 °F 51% 30.19 in 10.0 mi Calm Calm - N/A   Clear
8:15 PM 55.4 °F 37.4 °F 51% 30.19 in 10.0 mi Calm Calm - N/A   Clear
8:35 PM 55.4 °F 37.4 °F 51% 30.19 in 10.0 mi SE 4.6 mph - N/A   Clear
8:55 PM 55.4 °F 37.4 °F 51% 30.20 in 10.0 mi SE 4.6 mph - N/A   Clear
9:15 PM 55.4 °F 37.4 °F 51% 30.21 in 10.0 mi SE 3.5 mph - N/A   Clear
9:35 PM 55.4 °F 37.4 °F 51% 30.21 in 10.0 mi ESE 3.5 mph - N/A   Clear
9:55 PM 55.4 °F 37.4 °F 51% 30.20 in 10.0 mi East 4.6 mph - N/A   Clear
10:15 PM 53.6 °F 37.4 °F 54% 30.20 in 10.0 mi SE 4.6 mph - N/A   Clear
10:35 PM 53.6 °F 37.4 °F 54% 30.20 in 10.0 mi SE 4.6 mph - N/A   Clear
10:55 PM 53.6 °F 37.4 °F 54% 30.22 in 10.0 mi SE 8.1 mph - N/A   Clear
11:15 PM 51.8 °F 37.4 °F 58% 30.22 in 10.0 mi SE 8.1 mph - N/A   Clear
11:35 PM 53.6 °F 37.4 °F 54% 30.21 in 10.0 mi SE 11.5 mph - N/A   Clear
11:55 PM 51.8 °F 37.4 °F 58% 30.20 in 10.0 mi SE 11.5 mph - N/A   Clear
12:15 AM 51.8 °F 35.6 °F 54% 30.21 in 10.0 mi SSE 10.4 mph - N/A   Clear
12:35 AM 51.8 °F 35.6 °F 54% 30.20 in 10.0 mi SSE 8.1 mph - N/A   Clear
12:55 AM 50.0 °F 35.6 °F 58% 30.20 in 10.0 mi SSE 6.9 mph - N/A   Clear